THOR ABLESTAR DEB, 325

Orbit data source: Space-Track

THOR ABLESTAR DEB, 325 is space debris in LEO originally from a launch on Thu, 29 Jun 1961 UTC launched from the Air Force Eastern Test Range (AFETR). Debris objects in space refer to the collection of defunct objects orbiting the Earth. Examples of debris include non-operational satellites, rocket bodies, and fragments generated from explosions, collisions, or faulty payload assembly.

Loading next visibility...
Identifier
325, 1961-015DB
Orbit
LEO
Last TLE update
11 hours ago
Origin
Manufacturer
Unknown
Mission
Spacecraft
Bus & Motor
Unknown
Mass
Unknown
Launch date (UTC)
1961-06-29 (64 years ago)
Launch vehicle
Unknown
Launch site
Air Force Eastern Test Range (AFETR)
Object type
Payload
Rocket body
Debris
Shape & HBR
Unknown
Radar Cross Section
Small (<0.1 m²)

Expand to show TLE details & history

TLE from 11 hours ago
0 THOR ABLESTAR DEB
1 00325U 61015DB  25181.59340894  .00000548  00000-0  27738-3 0  9999
2 00325  66.9147 284.5796 0064117 294.5336  64.9084 14.22348172283140
Epoch: 2025-06-30T14:14Z
TLE epoch observation values (Epoch: 2025-06-30T14:14:30.532Z)
Latitude
-0.00007°
Longitude
152.05137°
Altitude
800.215 km
Speed
7.464 km/s
True Right ascension
18h 58m 19s
True Declination
0° 00' 00"
Sunlit
Object was in full shadow at epoch
Visualization orbit readout
Latitude
-61.52355°
Longitude
22.25384°
Altitude
805.609 km
Speed
7.468 km/s
Apparent Right ascension
04h 08m 04s
Apparent Declination
-72° 10' 13"
Sunlit
Object is in daylight
Visualization observer readout
Local Sidereal Time
13:10:22
Azimuth
199.97° SSW
Elevation
-51.129°
Doppler factor
1
Orbital elements
Apogee altitude
861.903 km
Perigee altitude
769.653 km
Semi-major axis
7,193.915 km
Eccentricity
0.00641
Inclination
66.9147°
RAAN
284.5796°
Arg. of periapsis
294.5336°
True anomaly
Unknown
Mean anomaly
64.9084°
Eccentric anomaly
Unknown
Mean motion
3.55709 °/min
Orbital period
101.21 mins
BSTAR
0.00027738
Loading maneuver chart data...
Loading SW <> Apogee altitude chart data...

THOR ABLESTAR DEB Visibility forecast

Observer location: undefined°, undefined°

Span
Click to sort rows by Start time (UTC) header in descending order
Start Az.
Max El. time (UTC)
Max El. Az.
Max El.
End time (UTC)
End Az.
7 mins2025-07-01 07:14:22.871Z147.719° SSE2025-07-01 07:18:22.871Z98.538° ESE18.796°2025-07-01 07:21:22.871Z63.923° ENE
9 mins2025-07-01 08:57:22.871Z228.117° WSW2025-07-01 09:01:22.871Z299.948° NW40.021°2025-07-01 09:06:22.871Z19.764° NNE
6 mins2025-07-01 16:06:22.871Z15.911° NNE2025-07-01 16:08:22.871Z41.269° NE18.606°2025-07-01 16:12:22.871Z87.686° E
9 mins2025-07-01 17:49:22.871Z326.152° NNW2025-07-01 17:53:22.871Z231.337° WSW44.16°2025-07-01 17:58:22.871Z159.538° S
|